Regional Weather Roundup
Issued by NWS San Diego, CA

Home | Current Version | Previous Version | Text Only | Print | Product List | Glossary On
Versions: 1 2 3 4 5 6 7 8 9 10 11 12 13 14 15 16 17 18 19 20 21 22 23 24 25 26 27 28 29 30 31 32 33 34 35 36 37 38 39 40 41 42 43 44 45 46 47 48 49 50
000
ASUS46 KSGX 020911
RWRSGX

SAN DIEGO HOURLY WEATHER ROUNDUP
NATIONAL WEATHER SERVICE SAN DIEGO CA
200 AM PDT MON MAY 02 2016

NOTE: "FAIR" INDICATES FEW OR NO CLOUDS BELOW 12,000 FEET WITH NO
SIGNIFICANT WEATHER AND/OR OBSTRUCTIONS TO VISIBILITY.

CAZ042-043-060-061-PZZ750-775-021000-

GREATER SAN DIEGO AREA

CITY           SKY/WX    TMP DP  RH WIND       PRES   REMARKS
LINDBERGH FLD  MOCLDY    60  51  72 CALM      30.02F
POINT LOMA       N/A     56  52  88 N3          N/A
NATIONAL CITY    N/A     60  53  78 CALM      30.01F
CHULA VISTA      N/A     56  52  86 SW1       29.93F
IMPERIAL BEACH CLOUDY    61  52  72 CALM      30.01F
BROWN FIELD    PTCLDY    55  50  83 E3        30.00F
MIRAMAR MCAS   PTCLDY    53  47  79 E3        30.00F
MONTGOMERY FLD CLEAR     57  50  77 CALM      30.01F

$$

NORTH SAN DIEGO COUNTY

CITY           SKY/WX    TMP DP  RH WIND       PRES   REMARKS
CAMP PENDLETON MOCLDY    52  49  89 CALM      30.01S FOG
OCEANSIDE AP   PTCLDY    53  48  83 CALM      30.00F
OCEANSIDE HBR    N/A     57  53  85 NE1       30.03F
VISTA            N/A     53  48  84 CALM      29.99F
CARLSBAD       PTCLDY    57  51  80 CALM      30.00F
DEL MAR          N/A     55  52  89 CALM      30.04S
LA JOLLA SCRIP   N/A     57  53  86 E2        30.00F
FALLBROOK        N/A     54  54  98 CALM      30.00F
SAN MARCOS       N/A     54  46  74 CALM      29.99F
POWAY            N/A     52  48  86 CALM      30.02F

$$

EAST SAN DIEGO COUNTY

CITY           SKY/WX    TMP DP  RH WIND       PRES   REMARKS
RAMONA         CLOUDY    53  50  89 E5        30.01F
SANTEE LAKES     N/A     53  50  91 CALM      30.00F
LA MESA          N/A     55  51  86 CALM      29.95S
JAMUL            N/A     50  47  90 CALM      30.01F
DESCANSO N       N/A     46  41  84 CALM      29.91S
MT. LAGUNA OBS   N/A     47  33  58 NE2       29.68
CAMPO            N/A     44  42  93 N3        29.98S

$$

ORANGE COUNTY AND THE LOS ANGELES BASIN

CITY           SKY/WX    TMP DP  RH WIND       PRES   REMARKS
JOHN WAYNE AP  CLEAR     58  52  80 S3        30.00F
LAKE FOREST FR   N/A     53  47  81 CALM      29.91F
HUNTINGTON BCH   N/A     58  53  83 CALM      30.02F
LOS ALAMITOS   FAIR      58  53  83 SW2       30.00F
FULLERTON      MOCLDY    59  52  77 CALM      30.00F
LONG BEACH     CLOUDY    59  53  80 CALM      30.01S
L.A. AP        PTCLDY    58  52  80 CALM      30.01S
L.A. DOWNTOWN  PTCLDY    58  53  84 CALM      30.00F

$$

THE INLAND EMPIRE

CITY           SKY/WX    TMP DP  RH WIND       PRES   REMARKS
CORONA         CLEAR     51  48  89 CALM      30.01F
CHINO          CLEAR     56  51  84 CALM      30.02F
ONTARIO        PTCLDY    55  50  83 NW6       30.00F
RIVERSIDE AP   CLEAR     56  51  84 W3        30.01F
MORENO VALLEY    N/A     54  53  95 CALM      28.12S
MARCH ARB      CLEAR     53  53 100 W5        30.00F
HORSETHIEF CYN   N/A     51  45  78 NW2       30.03F
PERRIS           N/A     54  52  95 CALM      30.01S
HEMET EAST       N/A     53  47  80 CALM      29.89F
FRENCH VALLEY  FAIR      52  50  93 CALM      30.01F
TEMECULA         N/A     54  52  93 S1        29.97F

$$

SAN BERNARDINO AND RIVERSIDE COUNTY MOUNTAINS

CITY           SKY/WX    TMP DP  RH WIND       PRES   REMARKS
BIG BEAR AP    PTCLDY    32  30  93 CALM      30.14F
ANGELUS OAKS     N/A     42  35  78 CALM      29.93S
PINE COVE        N/A     44  38  79 CALM      30.01S

$$

SOUTHERN DESERT INCLUDING THE COACHELLA VALLEY

CITY           SKY/WX    TMP DP  RH WIND       PRES   REMARKS
PALM SPRINGS   CLEAR     68  51  54 NW13      29.94S
THOUSAND PALMS   N/A     69  50  50 W7        29.91S
PALM DESERT      N/A     69  52  55 CALM      31.74S
THERMAL        CLEAR     71  50  47 NW9       29.89S
BLYTHE         CLEAR     64  40  41 E7        29.91S
IMPERIAL AP    CLEAR     69  43  38 CALM      29.89S
EL CENTRO NAS  CLEAR    N/A N/A N/A NW3       29.91S
YUMA AZ        CLEAR     69  50  50 E3        29.91
MEXICALI         N/A    N/A N/A N/A MISG        N/A

$$

UPPER DESERT

CITY           SKY/WX    TMP DP  RH WIND       PRES   REMARKS
VICTORVILLE AP CLEAR     57  41  54 SE7       30.02S
HESPERIA         N/A     54  40  59 W6        30.08F
PALMDALE       MOCLDY    62  43  49 SW8       30.00S
LANCASTER      CLOUDY    59  45  59 W7        30.00S
EDWARDS AFB    CLOUDY    61  45  56 S7        29.97F
DAGGETT        CLEAR     62  42  47 SW7       29.97S
29 PALMS N     PTCLDY    62  39  42 SW3       30.04S
NEEDLES        CLEAR     67  46  47 NW5       29.94S

$$

REGIONAL REPORTS

CITY           SKY/WX    TMP DP  RH WIND       PRES   REMARKS
SANTA BARBARA  CLOUDY    57  53  86 SE6       30.00S
SANDBERG       CLEAR     53  40  61 W7        30.07S
LAS VEGAS NV   PTCLDY    61  43  51 SW6       29.96S
PHOENIX AZ     CLEAR     66  41  40 CALM      29.93S
TIJUANA        PTCLDY    57  48  72 CALM      30.03F
ENSENADA NW      N/A     58  32  37 N1        29.98F

$$

OFFSHORE ISLANDS

CITY           SKY/WX    TMP DP  RH WIND       PRES   REMARKS
CATALINA ARPT  CLOUDY    51  50  96 E3        30.01F FOG
SAN NICOLAS IS CLOUDY   N/A N/A N/A S6        30.01S

$$

MARINE AND OFFSHORE BUOY REPORTS

STATION/POSITION SKY/WX   TEMP    WIND        PRES    SWELL
                          AIR SEA DIR/SP/G            HT/PER/DIR
                          (F)     (DEG/KT/KT) (MB)    (FT/S/D)
TANNER BANKS               59 60   40/  2/  4 1015.9F   7/310/10
S CLEMENTE BASIN           58 62   20/  2/  6 1016.0F   5/180/16
SAN NICOLAS IS.               59                N/A     5/210/15
SO. S. ROSA ISLA           56 56  210/  2/  4 1016.5R   5/220/15
W. S. BARBARA CH           54 55  180/  4/  6 1015.8R   5/290/14
M. S. BARBARA CH           57 57  360/  4/  4 1016.5S
S. MONICA BASIN            56 60   90/  2/  6 1016.5F   3/190/16
S PEDRO CHANNEL               62                N/A     2/180/15
OCEANSIDE OFFSHR              64                N/A     3/190/17
TORREY PINES OTR              64                N/A     3/200/17
LA JOLLA 1                 60 65  100/  3/  4 1016.1F
SAN DIEGO BAY                 68              1016.7S
POINT LOMA SOUTH              63                N/A     5/190/15

$$




USA.gov is the U.S. government's official web portal to all federal, state and local government web resources and services.